Regional Weather Roundup
Issued by NWS

Home | Current Version | Previous Version | Graphics & Text | Print | Product List | Glossary On
Versions: 1 2 3 4 5 6 7 8 9 10 11 12 13 14 15 16 17 18 19 20 21 22 23 24 25 26 27 28 29 30 31 32 33 34 35 36 37 38 39 40 41 42 43 44 45 46 47 48 49 50
000
ASUS43 KMPX 242101
RWRMN
WEATHER ROUNDUP FOR MINNESOTA
NATIONAL WEATHER SERVICE TWIN CITIES/CHANHASSEN MN
400 PM CDT THU JUL 24 2014


NOTE: "FAIR" INDICATES FEW OR NO CLOUDS BELOW 12,000 FEET WITH NO
SIGNIFICANT WEATHER AND/OR OBSTRUCTIONS TO VISIBILITY. N/A MEANS
CURRENT SKY AND/OR WEATHER CONDITIONS ARE NOT AVAILABLE.

MNZ060>063-068>070-242200-
   Twin Cities Metro

CITY           SKY/WX    TMP DP  RH WIND       PRES   REMARKS
TWIN CITIES    CLOUDY    80  55  42 SW10      30.06S
ST PAUL        CLOUDY    78  56  46 SW9       30.06S
CRYSTAL        CLOUDY    80  56  43 W8        30.05S
BLAINE         CLOUDY    81  57  44 SW14      30.07R
LAKEVILLE      CLOUDY    75  57  53 CALM      30.08R
EDEN PRAIRIE   CLOUDY    78  59  51 W6        30.07R
SOUTH ST PAUL  CLOUDY    80  55  42 SW6       30.06F
LAKE ELMO      PTSUNNY   77  59  53 SW8       30.07F
$$
MNZ001>005-007-008-013>017-022>024-027-028-242200-
   Northwest Minnesota

CITY           SKY/WX    TMP DP  RH WIND       PRES   REMARKS
BEMIDJI        CLOUDY    74  58  55 SE14      29.92F
HALLOCK        LGT RAIN  73  63  68 S6        29.91R
ROSEAU         LGT RAIN  73  64  73 S6        29.93F
WARROAD        CLOUDY    72  63  73 E9        29.94R
THIEF RVR FALL PTSUNNY   75  61  60 SE12      29.92F
CROOKSTON      MOSUNNY   77  61  57 S13       29.90F
FOSSTON        CLOUDY    75  57  53 SE14      29.91R
DETROIT LAKES  CLOUDY    73  55  53 S14       29.92R
MOORHEAD       PTSUNNY   73  63  68 S8G17     29.90F
PARK RAPIDS    CLOUDY    74  55  51 SE16      29.91F
$$
MNZ006-009>011-018-025>026-242200-
   North Central Minnesota

CITY           SKY/WX    TMP DP  RH WIND       PRES   REMARKS
BAUDETTE       PTSUNNY   73  58  59 E3        29.94F
FLAG ISLAND    PTSUNNY   72  54  53 SE3       29.92F
INTL FALLS     MOSUNNY   76  54  46 S6        29.95F
WASKISH        CLOUDY    72  57  60 CALM      29.90F
LONGVILLE      CLOUDY    72  57  60 SE7       29.95F
GRAND RAPIDS   CLOUDY    73  54  49 S6        29.99F
CRANE LAKE     PTSUNNY   73  52  46 S5        29.99F
ORR            MOSUNNY   75  48  38 S6        29.95F
COOK           PTSUNNY   75  52  43 S6        29.98F
$$
MNZ012-019>021-037-242200-
   Northeast Minnesota

CITY           SKY/WX    TMP DP  RH WIND       PRES   REMARKS
DULUTH         PTSUNNY   77  53  43 SW10      30.01F
ELY            PTSUNNY   73  52  46 SW6       30.00F
HIBBING        PTSUNNY   77  52  41 VRB3      29.98F
EVELETH        PTSUNNY   75  52  43 SW6       30.00F
DULUTH HARBOR  PTSUNNY   64  59  82 NE6       30.01F
TWO HARBORS    PTSUNNY   73  57  56 S7        30.00F
SILVER BAY     MOSUNNY   72  57  60 SE10      30.00F
GRAND MARAIS     N/A     58  50  75 W5        30.02F
G MARAIS ARPRT SUNNY     68  48  49 S10G18    30.06F
$$
MNZ029>031-032-039>041-046>048-054>057-064-242200-
   West Central Minnesota

CITY           SKY/WX    TMP DP  RH WIND       PRES   REMARKS
FERGUS FALLS   CLOUDY    72  59  64 S10       29.91R
WHEATON        PTSUNNY   70  63  78 SE24G36   29.88F
MORRIS         CLOUDY    70  64  83 SE22G28   29.89F
ALEXANDRIA     CLOUDY    65  60  84 SE21G33   29.83F
ELBOW LAKE     FAIR      70  62  76 S23G33    29.86R
WADENA         CLOUDY    70  55  60 E10G18    29.89S
GLENWOOD       LGT RAIN  63  61  94 SE24G33   29.87F
APPLETON       CLOUDY    70  66  88 SE13      29.95F
BENSON         CLOUDY    66  63  88 SE9       29.96F
ORTONVILLE     CLOUDY    70  64  83 SE18G26   29.91F
MADISON        CLOUDY    72  66  83 SE16      29.94F
WILLMAR        FAIR      66  63  88 SE10G26   29.96F
$$
MNZ033>034-036-042>043-049>051-058-059-242200-
   Central Minnesota

CITY           SKY/WX    TMP DP  RH WIND       PRES   REMARKS
ST CLOUD       CLOUDY    77  55  46 S9        30.00F
SAUK CENTRE    RAIN      63  62  94 SE30      29.83F
PAYNESVILLE    LGT RAIN  63  61  94 W3        30.03F
AITKIN         CLOUDY    75  61  60 SE6       29.96F
PINE RIVER     CLOUDY    72  57  60 SE9       29.96F
BRAINERD       CLOUDY    72  56  57 SE8       29.93F
STAPLES        CLOUDY    72  54  53 E9        29.88F
LONG PRAIRIE   LGT RAIN  63  59  88 SE25G40   29.76F
LITTLE FALLS   LGT RAIN  70  55  60 SE17G24   29.86F
LITCHFIELD     LGT RAIN  68  66  94 CALM      30.06F
BUFFALO        CLOUDY    76  58  53 SW6       30.07F
MAPLE LAKE     CLOUDY    76  61  60 SW3       30.06F
$$
MNZ037-044-045-052-053-242200-
   East Central Minnesota

CITY           SKY/WX    TMP DP  RH WIND       PRES   REMARKS
PRINCETON      CLOUDY    77  59  53 SW6       30.03F
MORA           CLOUDY    73  52  46 S7        30.03F
CAMBRIDGE      CLOUDY    81  59  47 SW10      30.02F
RUSH CITY      CLOUDY    76  55  48 S6        30.04F
MOOSE LAKE     CLOUDY    75  54  46 SW7       29.99F
HINCKLEY       FAIR      77  57  50 S9        30.03F
CLOQUET        PTSUNNY   75  50  41 SW12      30.01F
MCGREGOR       CLOUDY    75  57  53 S8        30.00F
$$
MNZ071>073-080-081-089-090-097-098-242200-
   Southwest Minnesota

CITY           SKY/WX    TMP DP  RH WIND       PRES   REMARKS
MONTEVIDEO     CLOUDY    66  64  94 S10       29.98S
GRANITE FALLS  LGT RAIN  66  63  89 S15G33    29.97F
CANBY          CLOUDY    66  63  89 SE20G25   29.96F
MARSHALL       CLOUDY    64  61  88 E10       30.10F THUNDER
REDWOOD FALLS  RAIN      68  65  90 N7        30.11R FOG
OLIVIA         HVY RAIN  70  64  83 S21G28    29.92F
PIPESTONE      TSTM      64  61  88 SE9       30.10S
WINDOM         RAIN      66  63  88 NW13G20   30.17R
WORTHINGTON    CLOUDY    63  59  88 N15G21    30.16R THUNDER
JACKSON        TSTM      66  61  82 NW8       30.12F
TRACY          CLOUDY    66  63  91 CALM      30.14F
SLAYTON        TSTM      64  62  95 CALM      30.15R
$$
MNZ065>067-074>077-082>085-091>093-242200-
   South Central Minnesota

CITY           SKY/WX    TMP DP  RH WIND       PRES   REMARKS
MANKATO        CLOUDY    77  59  53 W9        30.10R
NEW ULM        RAIN      72  66  83 W5        30.10S
ST JAMES       CLOUDY    73  64  73 CALM      30.10F
FAIRMONT       CLOUDY    72  59  64 SE8       30.06F
GLENCOE        DRIZZLE   76  59  55 W3        30.08F
FARIBAULT      CLOUDY    81  52  36 SW6       30.09R
OWATONNA       PTSUNNY   79  57  47 SW5       30.09R
WASECA         CLOUDY    77  55  47 SW8       30.11R
ALBERT LEA     PTSUNNY   79  59  50 SW3       30.09R
$$
MNZ078>079-086>088-094>096-242200-
   Southeast Minnesota

CITY           SKY/WX    TMP DP  RH WIND       PRES   REMARKS
ROCHESTER      PTSUNNY   77  57  50 S8        30.09R
RED WING       PTSUNNY   82  54  36 SW7       30.05S
STANTON        CLOUDY    79  58  48 SW6       30.07R
DODGE CENTER   PTSUNNY   75  59  57 SW7       30.09S
WINONA         PTSUNNY   77  55  47 SW3       30.07R
AUSTIN         PTSUNNY   75  57  53 S5        30.08S
PRESTON        MOSUNNY   76  61  60 SW7       30.09R
$$
ABBREVIATIONS USED IN REMARKS
   TC - TEMPERATURES IN CELSIUS
  WCI - WIND CHILL INDEX
   HX - HEAT INDEX
  VSB - VISIBILITY
$$



USA.gov is the U.S. government's official web portal to all federal, state and local government web resources and services.